Flag for Nepal Weather past 2 weeks in Pokhara, Nepal

Now
64 °F

Scattered clouds.


Feels Like: 64 °F
Forecast: 46 / 65 °F
Wind: 3 mph from West

Location: Kathmandu Airport

Current Time: Mar 3, 2015 at 1:37:41 PM

Latest Report: Mar 3, 2015 at 12:35 PM


Visibility: 4 mi

Pressure: 30.01 "Hg

Humidity: 60%

Dew point: 50 °F

Location of PokharaLocation

Historic Weather in Pokhara — Graph

°F

Pokhara temperature yesterday

Maximum temperature yesterday: 55 °F (at 3:35 PM)
Minimum temperature yesterday: 50 °F (at 7:35 AM)
Average temperature yesterday: 52 °F

Past Weeks' High & Low Weather Summary

 TemperatureHumidityPressure
High72 °F (Feb 22, 1:35 PM)100% (Feb 20, 3:35 AM)30.33 "Hg (Feb 20, 3:35 AM)
Low45 °F (Feb 19, 4:35 AM)27% (Feb 28, 1:35 PM)29.95 "Hg (Feb 21, 3:35 PM)
Average57 °F77%30.09 "Hg
* Reported Feb 16 12:35 PM — Mar 3 12:35 PM, Pokhara, Weather by CustomWeather, © 2015

Note: Actual official high and low records may vary slightly from our data, if they occured in-between our weather recording intervals... More about our weather records

Advertising

Pokhara weather history for previous 24 hours

 ConditionsComfort  
Time TempWeatherWind HumidityBarometerVisibility
12:35 PM
Tue, Mar 3
64 °FScattered clouds.3 mph60%30.01 "Hg4 mi
11:35 AM64 °FScattered clouds.3 mph60%30.04 "Hg4 mi
10:35 AM59 °FScattered clouds.No wind72%30.07 "Hg4 mi
9:35 AM54 °FFog.No wind88%30.09 "Hg2 mi
8:35 AM50 °FLight rain. Broken clouds.2 mph100%30.07 "Hg1 mi
7:35 AM50 °FLight rain. More clouds than sun.3 mph100%30.07 "Hg1 mi
6:35 AM50 °FLight rain. Mostly cloudy.2 mph100%30.04 "Hg1 mi
5:35 AM50 °FLight rain. Mostly cloudy.3 mph94%30.04 "Hg1 mi
4:35 AM50 °FLight rain. Mostly cloudy.3 mph94%30.04 "Hg2 mi
3:35 AM48 °FFog.No wind100%30.07 "Hg2 mi
2:35 AM50 °FFog.3 mph94%30.07 "Hg3 mi
1:35 AM50 °FFog.2 mph100%30.09 "Hg3 mi
12:35 AM50 °FFog.3 mph94%30.12 "Hg3 mi
11:35 PM
Mon, Mar 2
52 °FPartly cloudy.2 mph94%30.12 "Hg4 mi
10:35 PM52 °FPartly cloudy.No wind94%30.12 "Hg4 mi
9:35 PM54 °FMostly cloudy.2 mph88%30.15 "Hg4 mi
8:35 PM54 °FMostly cloudy.No wind94%30.15 "Hg4 mi
7:35 PM54 °FMostly cloudy.No wind88%30.15 "Hg5 mi
6:35 PM54 °FBroken clouds.3 mph88%30.12 "Hg5 mi
5:35 PM55 °FBroken clouds.2 mph82%30.12 "Hg5 mi
4:35 PM55 °FBroken clouds.3 mph82%30.07 "Hg5 mi
3:35 PM55 °FBroken clouds.12 mph82%30.09 "Hg5 mi
2:35 PM54 °FBroken clouds.14 mph82%30.12 "Hg5 mi
1:35 PM52 °FRain. More clouds than sun.No wind100%30.21 "Hg2 mi
Weather by CustomWeather, © 2015

See weather overviewHow to use our weather pages